Regional Weather Roundup
Issued by NWS Green Bay, WI

Home | Current Version | Previous Version | Graphics & Text | Print | Product List | Glossary Off
Versions: 1 2 3 4 5 6 7 8 9 10 11 12 13 14 15 16 17 18 19 20 21 22 23 24 25 26 27 28 29 30 31 32 33 34 35 36 37 38 39 40 41 42 43 44 45 46 47 48 49 50

493
ASUS43 KGRB 231211
RWRGRB

NORTH-CENTRAL AND NORTHEAST WISCONSIN REGIONAL WEATHER ROUNDUP
NATIONAL WEATHER SERVICE GREEN BAY WI
700 AM CDT SUN JUL 23 2017

WIZ005-009-010>012-018-019-231300-
NORTH CENTRAL WISCONSIN

CITY           SKY/WX    TMP DP  RH WIND       PRES   REMARKS
IRONWOOD       FOG       54  54 100 W5        29.86R VSB<1/4
MANITOWISH WTR CLOUDY    57  57 100 N5        29.84R
ARBOR VITAE    CLOUDY    62  61  97 N5        29.82S
EAGLE RIVER    CLOUDY    62  62 100 N8        29.82R
LAND O LAKES   CLOUDY    60  60 100 N3        29.84S FOG
RHINELANDER    SUNNY     64  62  93 NW5       29.83R
PHILLIPS       FOG       58  58 100 NW3       29.83R VSB 1/2
ANTIGO         MOSUNNY   63  62  98 W5        29.81S
TOMAHAWK         N/A     58  57  97 CALM      29.83R FOG
MERRILL        MOSUNNY   61  61 100 CALM      29.82R
$$

WIZ013-073-231300-
NORTHEAST WISCONSIN

CITY           SKY/WX    TMP DP  RH WIND       PRES   REMARKS
IRON MOUNTAIN  CLOUDY    65  61  87 NW12      29.78R
MARINETTE      FOG       65  65 100 CALM      29.76S VSB 1/4
OCONTO         CLOUDY    64  64  99 W5        29.76R VSB<1/4
$$

WIZ017-030-035>037-045-231300-
CENTRAL WISCONSIN

CITY           SKY/WX    TMP DP  RH WIND       PRES   REMARKS
MEDFORD        CLOUDY    63  60  91 NW5       29.83R
WAUSAU         MOSUNNY   66  63  90 NW5       29.80R
MOSINEE        PTSUNNY   66  64  94 W6        29.82S
MARSHFIELD     CLOUDY    65  60  84 NW8       29.82R
WISC RAPIDS    PTSUNNY   64  64 100 NW7       29.83R
STEVENS POINT  PTSUNNY   65  65  99 NW3       29.82R
WAUPACA        MOSUNNY   69  69  98 W5        29.79S
SHAWANO        CLOUDY    67  66  95 W6        29.77S
CLINTONVILLE   PTSUNNY   66  66 100 W6        29.78R
WAUTOMA        SUNNY     68  66  93 W3        29.81
$$

WIZ038-039-048-051-231300-
FOX VALLEY

CITY           SKY/WX    TMP DP  RH WIND       PRES   REMARKS
NWS GREEN BAY  FOG       68  68 100 SW6       29.77R VSB 1/2
APPLETON       PTSUNNY   68  68 100 VRB5      29.78R FOG
OSHKOSH        SUNNY     69  67  93 W5        29.79R
FOND DU LAC    SUNNY     71  67  87 SW5       29.80R
$$

WIZ022-050-052-231300-
EAST CENTRAL WISCONSIN

CITY           SKY/WX    TMP DP  RH WIND       PRES   REMARKS
EPHRAIM        CLOUDY    66  66  99 W3        29.74F
WASHINGTON ISL CLOUDY    66  65  97 CALM      29.74S
STURGEON BAY     N/A     66  66 100 MISG      29.77R FOG
MANITOWOC      CLOUDY    68  66  93 W3        29.77F FOG
SHEBOYGAN      CLOUDY    68  68 100 SW8       29.78S
$$

LMZ563-521-522-541>543-231300-
LAKESHORE

STATION/POSITION TIME  TEMP    WIND        PRES    VSBY  WAVE
                       AIR SEA DIR/SP/G                  HT/PER
                 (UTC) (F)     (DEG/KT/KT) (MB)    (MI)  (FT/S)
SHEBOYGAN LKSHOR 1200   68     220/ 11/ 12 1007.8R
KEWAUNEE LKSHORE 1148   68     260/  4/  6 1007.0F
NORTHPORT PIER   1140   68     290/  5/  7 1007.5S
N MID LAKE BUOY  1150   67 68  210/  6/  8 1007.7F         0
S GREEN BAY BUOY 1200   70 73  230/ 10/ 12 1007.5
SISTER BAY LKSHO 1202   68     340/  5/  6   N/A
CHAMBERS ISLAND  1140   65     280/  2/  7 1006.8S
MENOMINEE LKSHOR 1148   65     330/  6/  7 1007.6R
$$




USA.gov is the U.S. government's official web portal to all federal, state and local government web resources and services.